Погода в Калугине

Россия / Тамбовская область     52°24′25″N   42°17′24″E
темп.,
°C
ветер,
м/с
пор.,
м/с
влажн.,
%
обл.,
%
осадки,
мм/ч
давл.,
гПа
погр.,
м
20 января, чт
чт2000:00−19св11100100 0.1 101910
03:00−20всв00100100 0.1 10199
06:00−19юз2210099 0.0 101812
09:00−18ю35100100 0.1 101962
12:00−13юз379784 0.0 1018166
15:00−12ю489511 0.0 1017180
18:00−15ю5119767 0.0 1017163
21:00−14ю5139777 0.0 1016217
21 января, пт
пт2100:00−15ю5149769 0.0 1016226
03:00−15ю5149782 0.0 1016228
06:00−14ююв61596100 0.0 1013272
09:00−12ююв81893100 0.0 1012414
12:00−9ююв102093100 0.2 1009606
15:00−7ююв101894100 1.9 1007669
18:00−6ююв91794100 0.7 1005617
21:00−4ю81495100 2.8 1004653
22 января, сб
сб2200:00−6ююз71391100 0.4 1008466
03:00−9ю6139588 0.5 1010295
06:00−12ю5129898 0.0 1011235
09:00−12ююв5119899 0.1 1013215
12:00−9ю5119571 0.0 1014315
15:00−8ююв499564 0.0 1015225
18:00−12юв389875 0.0 101796
21:00−11ююв36100100 0.1 101894
23 января, вс
вс2300:00−9юв229898 0.1 101838
03:00−9з119796 0.3 101916
06:00−9юз009799 0.0 102011
09:00−9св1297100 0.1 102252
12:00−6св2496100 0.0 1023137
15:00−4св4896100 0.0 1024328
18:00−4всв5996100 0.8 1025445
21:00−5в61196100 1.8 1024438
24 января, пн
пн2400:00−6в61295100 1.5 1026451
03:00−8в61190100 1.6 1026334
06:00−9в61391100 0.0 1027334
09:00−9в61391100 0.0 1027371
12:00−7вюв61390100 0.0 1027504
15:00−7в51090100 0.0 1026402
18:00−7вюв51291100 0.0 1026361
21:00−7вюв51291100 0.0 1027404